When you browse on this site, cookies collect data to enhance your experience and personalize the content and advertising you see.
Visit our Privacy Policy to learn more. By continuing to use the site, you agree to this use of cookies and data.
  • In Austria
  • List of Countries
  • For 7 days
  • Water Temperature
  • Weather Map
  • News
  • Weather Widgets
  • user-avatar
    Login

    Hourly Weather Santiago Tulantepec

    Today, 15 November, Friday

    Time Temperature Precipitation Wind Pressure Humidity
    00:00 +12°C° 0.2 mm 2 mps 587 mmHg 95%
    01:00 +12°C° 0.2 mm 2 mps 587 mmHg 95%
    02:00 +12°C° 0.2 mm 2 mps 587 mmHg 96%
    03:00 +12°C° 0.1 mm 2 mps 587 mmHg 95%
    04:00 +10°C° 0.1 mm 2 mps 587 mmHg 95%
    05:00 +10°C° 0.1 mm 2 mps 587 mmHg 95%
    06:00 +10°C° 0 mm 2 mps 587 mmHg 94%
    07:00 +10°C° 0 mm 2 mps 587 mmHg 94%
    08:00 +10°C° 0 mm 2 mps 588 mmHg 93%
    09:00 +12°C° 0 mm 2 mps 588 mmHg 90%
    10:00 +12°C° 0 mm 2 mps 588 mmHg 86%
    11:00 +13°C° 0 mm 2 mps 588 mmHg 83%
    12:00 +13°C° 0 mm 2 mps 587 mmHg 84%
    13:00 +13°C° 0 mm 2 mps 587 mmHg 85%
    14:00 +12°C° 0 mm 2 mps 586 mmHg 85%
    15:00 +12°C° 0 mm 2 mps 586 mmHg 88%
    16:00 +10°C° 0 mm 2 mps 586 mmHg 90%
    17:00 +10°C° 0 mm 2 mps 585 mmHg 93%
    18:00 +9°C° 0 mm 2 mps 586 mmHg 93%
    19:00 +9°C° 0 mm 2 mps 586 mmHg 94%
    20:00 +9°C° 0 mm 2 mps 587 mmHg 94%
    21:00 +10°C° 0 mm 1 mps 586 mmHg 94%
    22:00 +10°C° 0 mm 1 mps 586 mmHg 94%
    23:00 +10°C° 0 mm 1 mps 586 mmHg 94%

    Tomorrow, 16 November, Saturday

    Time Temperature Precipitation Wind Pressure Humidity
    00:00 +10°C° 0 mm 1 mps 586 mmHg 93%
    01:00 +10°C° 0 mm 1 mps 585 mmHg 93%
    02:00 +10°C° 0 mm 1 mps 585 mmHg 93%
    03:00 +9°C° 0 mm 0 mps 585 mmHg 93%
    04:00 +9°C° 0 mm 0 mps 585 mmHg 92%
    05:00 +9°C° 0 mm 0 mps 585 mmHg 92%
    06:00 +10°C° 0 mm 0 mps 586 mmHg 87%
    07:00 +12°C° 0 mm 0 mps 587 mmHg 83%
    08:00 +13°C° 0 mm 0 mps 588 mmHg 78%
    09:00 +15°C° 0 mm 1 mps 588 mmHg 73%
    10:00 +18°C° 0 mm 1 mps 588 mmHg 67%
    11:00 +18°C° 0 mm 2 mps 588 mmHg 62%
    12:00 +18°C° 0.2 mm 2 mps 587 mmHg 66%
    13:00 +17°C° 0.2 mm 2 mps 587 mmHg 69%
    14:00 +17°C° 0.2 mm 2 mps 586 mmHg 72%
    15:00 +16°C° 0.2 mm 2 mps 585 mmHg 79%
    16:00 +14°C° 0.2 mm 2 mps 585 mmHg 85%
    17:00 +13°C° 0.2 mm 1 mps 584 mmHg 91%
    18:00 +13°C° 0 mm 1 mps 585 mmHg 91%
    19:00 +13°C° 0 mm 1 mps 585 mmHg 92%
    20:00 +13°C° 0 mm 1 mps 585 mmHg 92%
    21:00 +12°C° 0 mm 1 mps 585 mmHg 92%
    22:00 +12°C° 0 mm 1 mps 584 mmHg 93%
    23:00 +11°C° 0 mm 1 mps 584 mmHg 93%

    Day after tomorrow, 17 November, Sunday

    Time Temperature Precipitation Wind Pressure Humidity
    00:00 +11°C° 0 mm 1 mps 584 mmHg 93%
    01:00 +11°C° 0 mm 1 mps 583 mmHg 92%
    02:00 +11°C° 0 mm 1 mps 583 mmHg 91%
    03:00 +11°C° 0 mm 1 mps 583 mmHg 91%
    04:00 +11°C° 0 mm 1 mps 583 mmHg 90%
    05:00 +11°C° 0 mm 1 mps 583 mmHg 90%
    06:00 +13°C° 0 mm 1 mps 584 mmHg 83%
    07:00 +15°C° 0 mm 1 mps 585 mmHg 76%
    08:00 +18°C° 0 mm 1 mps 586 mmHg 70%
    09:00 +19°C° 0 mm 1 mps 587 mmHg 66%
    10:00 +19°C° 0 mm 2 mps 587 mmHg 62%
    11:00 +20°C° 0 mm 2 mps 587 mmHg 58%
    12:00 +20°C° 0.4 mm 2 mps 586 mmHg 61%
    13:00 +19°C° 0.4 mm 2 mps 585 mmHg 64%
    14:00 +19°C° 0.4 mm 2 mps 585 mmHg 66%
    15:00 +17°C° 0.3 mm 2 mps 584 mmHg 75%
    16:00 +16°C° 0.3 mm 2 mps 584 mmHg 83%
    17:00 +14°C° 0.3 mm 1 mps 583 mmHg 91%
    18:00 +14°C° 0 mm 1 mps 584 mmHg 89%
    19:00 +14°C° 0 mm 1 mps 584 mmHg 87%
    20:00 +14°C° 0 mm 1 mps 584 mmHg 85%
    21:00 +14°C° 0.1 mm 1 mps 584 mmHg 83%
    22:00 +14°C° 0.1 mm 1 mps 584 mmHg 80%
    23:00 +14°C° 0.1 mm 1 mps 584 mmHg 78%

    18 November, Monday

    Time Temperature Precipitation Wind Pressure Humidity
    00:00 +14°C° 0 mm 1 mps 584 mmHg 78%
    01:00 +12°C° 0 mm 0 mps 584 mmHg 77%
    02:00 +12°C° 0 mm 0 mps 583 mmHg 77%
    03:00 +12°C° 0 mm 0 mps 583 mmHg 78%
    04:00 +12°C° 0 mm 0 mps 583 mmHg 78%
    05:00 +11°C° 0 mm 0 mps 583 mmHg 78%
    06:00 +13°C° 0 mm 0 mps 584 mmHg 73%
    07:00 +14°C° 0 mm 0 mps 585 mmHg 68%
    08:00 +16°C° 0 mm 0 mps 586 mmHg 62%
    09:00 +19°C° 0 mm 1 mps 586 mmHg 59%
    10:00 +20°C° 0 mm 1 mps 586 mmHg 56%
    11:00 +20°C° 0 mm 2 mps 586 mmHg 53%
    12:00 +20°C° 0.1 mm 2 mps 586 mmHg 59%
    13:00 +19°C° 0.1 mm 2 mps 585 mmHg 64%
    14:00 +19°C° 0.1 mm 2 mps 584 mmHg 69%
    15:00 +17°C° 0.2 mm 2 mps 584 mmHg 77%
    16:00 +16°C° 0.2 mm 2 mps 583 mmHg 85%
    17:00 +15°C° 0.2 mm 2 mps 583 mmHg 93%
    18:00 +15°C° 0.1 mm 2 mps 583 mmHg 93%
    19:00 +14°C° 0.1 mm 1 mps 584 mmHg 93%
    20:00 +14°C° 0.1 mm 1 mps 584 mmHg 93%
    21:00 +14°C° 0.1 mm 1 mps 584 mmHg 92%
    22:00 +14°C° 0.1 mm 1 mps 584 mmHg 91%
    23:00 +13°C° 0.1 mm 1 mps 584 mmHg 90%

    19 November, Tuesday

    Time Temperature Precipitation Wind Pressure Humidity
    00:00 +12°C° 0 mm 0 mps 583 mmHg 89%
    01:00 +12°C° 0 mm 0 mps 583 mmHg 87%
    02:00 +12°C° 0 mm 0 mps 583 mmHg 86%
    03:00 +12°C° 0 mm 0 mps 583 mmHg 86%
    04:00 +12°C° 0 mm 0 mps 583 mmHg 85%
    05:00 +11°C° 0 mm 0 mps 583 mmHg 85%
    06:00 +13°C° 0 mm 0 mps 584 mmHg 81%
    07:00 +14°C° 0 mm 0 mps 585 mmHg 77%
    08:00 +16°C° 0 mm 1 mps 586 mmHg 74%
    09:00 +18°C° 0 mm 1 mps 586 mmHg 70%
    10:00 +19°C° 0 mm 1 mps 586 mmHg 65%
    11:00 +20°C° 0 mm 2 mps 587 mmHg 61%
    12:00 +19°C° 0.1 mm 2 mps 586 mmHg 66%
    13:00 +18°C° 0.1 mm 2 mps 585 mmHg 71%
    14:00 +18°C° 0.1 mm 3 mps 584 mmHg 75%
    15:00 +17°C° 0.1 mm 2 mps 584 mmHg 80%
    16:00 +16°C° 0.1 mm 2 mps 584 mmHg 85%
    17:00 +14°C° 0.1 mm 2 mps 583 mmHg 90%
    18:00 +14°C° 0 mm 1 mps 584 mmHg 91%
    19:00 +14°C° 0 mm 1 mps 584 mmHg 91%
    20:00 +13°C° 0 mm 1 mps 584 mmHg 92%
    21:00 +13°C° 0 mm 1 mps 584 mmHg 92%
    22:00 +13°C° 0 mm 1 mps 584 mmHg 92%
    23:00 +13°C° 0 mm 1 mps 584 mmHg 91%

    20 November, Wednesday

    Time Temperature Precipitation Wind Pressure Humidity
    00:00 +13°C° 0 mm 1 mps 583 mmHg 92%
    01:00 +13°C° 0 mm 1 mps 583 mmHg 92%
    02:00 +13°C° 0 mm 1 mps 583 mmHg 92%
    03:00 +13°C° 0 mm 1 mps 583 mmHg 92%
    04:00 +13°C° 0 mm 1 mps 583 mmHg 92%
    05:00 +13°C° 0 mm 1 mps 583 mmHg 92%
    06:00 +14°C° 0 mm 1 mps 584 mmHg 86%
    07:00 +16°C° 0 mm 1 mps 585 mmHg 79%
    08:00 +18°C° 0 mm 1 mps 586 mmHg 72%
    09:00 +20°C° 0 mm 1 mps 587 mmHg 67%
    10:00 +21°C° 0 mm 1 mps 587 mmHg 61%
    11:00 +23°C° 0 mm 2 mps 587 mmHg 55%
    12:00 +23°C° 0.3 mm 2 mps 586 mmHg 56%
    13:00 +21°C° 0.3 mm 2 mps 586 mmHg 58%
    14:00 +21°C° 0.3 mm 2 mps 585 mmHg 59%
    15:00 +20°C° 0.2 mm 2 mps 585 mmHg 68%
    16:00 +19°C° 0.2 mm 1 mps 584 mmHg 77%
    17:00 +16°C° 0.2 mm 1 mps 584 mmHg 86%
    18:00 +16°C° 0.1 mm 1 mps 584 mmHg 86%
    19:00 +16°C° 0.1 mm 1 mps 584 mmHg 85%
    20:00 +15°C° 0.1 mm 1 mps 584 mmHg 84%
    21:00 +15°C° 0 mm 1 mps 584 mmHg 83%
    22:00 +14°C° 0 mm 0 mps 584 mmHg 81%
    23:00 +14°C° 0 mm 0 mps 584 mmHg 80%
    Show more